EST,Max TemperatureF,Mean TemperatureF,Min TemperatureF,Max Dew PointF,MeanDew PointF,Min DewpointF,Max Humidity, Mean Humidity, Min Humidity, Max Sea Level PressureIn, Mean Sea Level PressureIn, Min Sea Level PressureIn, Max VisibilityMiles, Mean VisibilityMiles, Min VisibilityMiles, Max Wind SpeedMPH, Mean Wind SpeedMPH, Max Gust SpeedMPH,PrecipitationIn, CloudCover, Events, WindDirDegrees
2012-11-1,80,68,57,62,58,55,90,69,47,30.10,30.05,29.99,10,9,7,12,4,,0.00,1,,232
2012-11-2,81,72,63,66,58,46,97,68,32,30.12,30.07,30.04,10,9,4,10,5,,0.00,1,,312
2012-11-3,84,70,57,57,53,46,90,58,29,30.17,30.11,30.07,10,10,8,13,3,,0.00,0,,7
2012-11-4,82,72,62,64,60,58,90,71,49,30.14,30.08,30.03,10,9,5,12,2,,0.00,0,,76
2012-11-5,79,72,66,64,59,54,90,64,48,30.05,30.00,29.96,10,9,6,9,2,,0.00,1,,291
2012-11-6,82,73,64,67,62,50,96,72,36,29.97,29.92,29.85,10,8,2,16,4,22,0.00,2,,242
2012-11-7,73,67,57,65,55,48,84,65,48,30.01,29.93,29.87,10,10,10,18,9,28,0.00,1,,306
2012-11-8,69,62,55,49,43,36,80,54,31,30.14,30.08,30.00,10,10,9,20,7,29,0.00,2,,326
2012-11-9,75,65,55,55,50,48,84,57,37,30.22,30.18,30.12,10,10,9,16,10,26,0.00,3,,22
2012-11-10,78,74,69,56,53,49,57,49,40,30.28,30.23,30.19,10,10,10,20,9,26,0.00,6,,62
2012-11-11,80,75,70,66,59,52,83,57,40,30.25,30.21,30.18,10,9,2,18,13,26,0.04,4,Rain,82
2012-11-12,81,75,69,68,66,63,90,72,58,30.22,30.17,30.14,10,8,2,21,13,28,0.03,4,Rain,78
2012-11-13,80,73,66,67,64,62,90,70,56,30.16,30.11,30.07,10,10,6,14,8,,0.00,2,,53
2012-11-14,82,73,64,67,64,63,97,75,56,30.14,30.10,30.07,10,9,7,15,7,20,0.00,3,Rain-Thunderstorm,41
2012-11-15,81,72,64,66,63,60,97,75,50,30.12,30.08,30.05,10,8,2,15,7,20,0.38,3,Rain,47
2012-11-16,79,72,64,66,64,62,94,83,56,30.13,30.09,30.04,10,8,5,12,8,,0.00,7,Rain,2
2012-11-17,79,72,66,68,64,61,100,81,58,30.12,30.08,30.04,10,8,2,14,7,,0.05,3,Rain,27
2012-11-18,81,74,66,66,64,61,94,78,52,30.14,30.09,30.05,10,9,7,15,8,18,0.00,3,Rain,360
2012-11-19,73,67,61,64,58,56,94,78,55,30.14,30.09,30.04,10,8,6,14,9,,0.00,3,,340
2012-11-20,71,66,60,63,60,56,100,88,73,30.07,30.02,29.95,10,5,1,17,10,23,0.00,7,,319
2012-11-21,77,68,60,61,55,49,90,69,45,30.05,30.00,29.95,10,9,7,16,12,25,0.00,1,,332
2012-11-22,75,66,57,53,49,45,75,58,38,30.14,30.07,30.03,10,10,9,18,12,26,0.00,0,,336
2012-11-23,78,66,55,56,52,48,80,63,45,30.17,30.11,30.07,10,10,10,15,10,,0.00,2,,330
2012-11-24,73,63,53,56,50,43,83,63,34,30.14,30.09,30.04,10,9,7,16,5,24,0.00,0,,309
2012-11-25,77,64,52,56,52,48,93,68,37,30.16,30.12,30.08,10,8,5,10,5,,0.00,0,,308
2012-11-26,79,68,57,60,57,54,87,69,47,30.22,30.18,30.13,10,8,5,13,2,16,0.00,2,,114
2012-11-27,78,70,62,65,63,59,90,76,60,30.21,30.17,30.11,10,10,7,13,4,,0.00,4,,127
2012-11-28,81,72,64,66,63,57,97,76,45,30.21,30.17,30.12,10,8,6,12,5,,0.00,3,,350
2012-11-29,79,70,60,63,61,59,100,77,56,30.23,30.19,30.17,10,7,3,21,10,25,0.00,4,,25
2012-11-30,78,73,68,66,60,56,94,67,50,30.24,30.18,30.15,10,9,2,21,15,28,0.14,7,Rain,55